Location: Ethel Rock
(53.4667°N, 4.5667°W)
Time: 03:53:37
(UTC+00:00)

Cosmos 2360 - Pass Details

Date: 24 October 2020
Orbit: 848 x 855 km, 70.8° (Epoch: 25 November)

Event Time Altitude Azimuth Distance (km) Brightness Sun altitude
Exits shadow 05:39:15 - 325° (NW) 3,264 6.9 -13.0°
Reaches altitude 10° 05:41:18 10° 322° (NW) 2,491 6.3 -12.7°
Maximum altitude 05:46:52 54° 246° (WSW) 1,026 4.3 -11.9°
Drops below altitude 10° 05:52:22 10° 171° (S) 2,470 6.8 -11.0°
Sets 05:54:51 0° 166° (SSE) 3,401 7.6 -10.7°
